Location: Newark
(45.9167°N, 5.5000°E)
Time: 21:07:02
(UTC+00:00)

ISS - Pass Details

Date: 26 January 2020
Orbit: 415 x 422 km, 51.6° (Epoch: 24 February)

Event Time Altitude Azimuth Distance (km) Brightness Sun altitude
Rises 18:58:27 0° 279° (W) 2,377 1.4 -25.0°
Reaches altitude 10° 19:00:43 10° 291° (WNW) 1,511 -0.1 -25.4°
Enters shadow 19:02:25 22° 313° (NW) 971 -1.5 -25.7°
